Flag for Kazakhstan Weather past 2 weeks in Shymkent, Kazakhstan

Now
61 °F

Clear.


Feels Like: 61 °F
Forecast: 44 / 71 °F
Wind: 3 mph from East

Location: Shymkent Airport

Current Time: Oct 2, 2014 at 9:01:23 PM

Latest Report: Oct 2, 2014 at 8:30 PM


Visibility: 10 mi

Pressure: 30.12 "Hg

Humidity: 72%

Dew point: 52 °F

Location of ShymkentLocation

Historic Weather in Shymkent — Graph

°F

Shymkent temperature yesterday

Maximum temperature yesterday: 66 °F (at 2:00 PM)
Minimum temperature yesterday: 50 °F (at 5:30 AM)
Average temperature yesterday: 58 °F

Past Weeks' High & Low Weather Summary

 TemperatureHumidityPressure
High95 °F (Sep 26, 3:30 PM)88% (Sep 27, 12:30 PM)30.33 "Hg (Sep 27, 12:30 PM)
Low39 °F (Sep 20, 6:30 AM)6% (Sep 21, 4:00 PM)29.65 "Hg (Sep 18, 12:00 AM)
Average66 °F38%29.98 "Hg
* Reported Sep 17 8:00 PM — Oct 2 8:00 PM, Shymkent, Weather by CustomWeather, © 2014

Note: Actual official high and low records may vary slightly from our data, if they occured in-between our weather recording intervals... More about our weather records

Advertising

Shymkent weather history for previous 24 hours

 ConditionsComfort  
Time TempWeatherWind HumidityBarometerVisibility
8:00 PM
Oct 2
61 °FPassing clouds.3 mph72%30.12 "HgN/A
7:30 PM63 °FClear.1 mph68%30.12 "Hg10 mi
7:00 PM63 °FClear.1 mph68%30.12 "Hg10 mi
6:30 PM64 °FClear.3 mph64%30.12 "Hg10 mi
6:00 PM66 °FSunny.1 mph60%30.12 "Hg10 mi
5:30 PM66 °FSunny.1 mph60%30.12 "Hg10 mi
5:00 PM66 °FPassing clouds.6 mph60%30.12 "HgN/A
4:30 PM66 °FPassing clouds.3 mph60%30.12 "HgN/A
4:00 PM66 °FPassing clouds.3 mph60%30.12 "HgN/A
3:30 PM64 °FScattered clouds.3 mph64%30.12 "HgN/A
3:00 PM63 °FMostly cloudy.3 mph68%30.12 "HgN/A
2:30 PM63 °FMostly cloudy.6 mph68%30.12 "HgN/A
2:00 PM64 °FMostly cloudy.1 mph60%30.12 "HgN/A
1:30 PM61 °FMostly cloudy.3 mph68%30.12 "HgN/A
1:00 PM59 °FMostly cloudy.6 mph72%30.12 "HgN/A
12:30 PM57 °FMostly cloudy.8 mph77%30.12 "HgN/A
12:00 PM55 °FMostly cloudy.3 mph77%30.12 "HgN/A
11:30 AM54 °FSprinkles. More clouds than sun.15 mph88%30.15 "Hg4 mi
11:00 AM57 °FSprinkles. More clouds than sun.15 mph82%30.15 "Hg4 mi
10:30 AM59 °FMore clouds than sun.15 mph77%30.09 "Hg4 mi
10:00 AM61 °FMostly cloudy.6 mph77%30.07 "HgN/A
9:30 AM61 °FSprinkles. Overcast.15 mph72%30.07 "HgN/A
9:00 AM59 °FMostly cloudy.15 mph77%30.07 "HgN/A
8:30 AM59 °FSprinkles. Mostly cloudy.10 mph82%30.07 "Hg4 mi
8:00 AM59 °FSprinkles. Mostly cloudy.1 mph77%30.07 "Hg4 mi
7:30 AM57 °FSprinkles. More clouds than sun.3 mph82%30.04 "Hg5 mi
7:00 AM57 °FOvercast.3 mph82%30.04 "Hg5 mi
6:30 AM55 °FOvercast.1 mph88%30.04 "Hg5 mi
6:00 AM55 °FMostly cloudy.No wind82%30.01 "HgN/A
5:30 AM55 °FMostly cloudy.1 mph82%30.01 "HgN/A
5:00 AM59 °FMostly cloudy.6 mph72%30.01 "HgN/A
4:30 AM57 °FMostly cloudy.3 mph82%30.01 "HgN/A
4:00 AM59 °FMostly cloudy.3 mph77%30.04 "HgN/A
3:30 AM57 °FMostly cloudy.1 mph82%30.07 "HgN/A
3:00 AM57 °FMostly cloudy.1 mph82%30.07 "HgN/A
2:30 AM57 °FMostly cloudy.3 mph82%30.07 "HgN/A
2:00 AM57 °FSprinkles. Mostly cloudy.3 mph82%30.09 "HgN/A
1:30 AM57 °FSprinkles. Mostly cloudy.3 mph77%30.09 "HgN/A
1:00 AM55 °FSprinkles. Mostly cloudy.3 mph82%30.09 "HgN/A
12:30 AM57 °FSprinkles. Mostly cloudy.1 mph77%30.09 "HgN/A
12:00 AM57 °FSprinkles. Mostly cloudy.3 mph77%30.12 "HgN/A
11:30 PM
Oct 1
57 °FSprinkles. Mostly cloudy.3 mph82%30.12 "HgN/A
11:00 PM57 °FSprinkles. Mostly cloudy.3 mph77%30.12 "HgN/A
10:30 PM57 °FMostly cloudy.6 mph72%30.12 "HgN/A
10:00 PM59 °FThundershowers. Mostly cloudy.1 mph68%30.15 "HgN/A
9:30 PM59 °FThunderstorms. Mostly cloudy.3 mph63%30.15 "HgN/A
9:00 PM59 °FThundershowers. Mostly cloudy.3 mph59%30.15 "HgN/A
Weather by CustomWeather, © 2014

See weather overviewHow to use our weather pages